Back to catalog

STARLINK-5882

AliveCommunicationsVLEO
NORAD 55936·PAYLOAD·🇺🇸 United States

Launched Mar 17, 2023 from Vandenberg Space Force Base

Loading…

Next Passes (next 24 hours)

TLE

FreshSource: CelesTrak SupGP

Epoch: Sep 14, 2026, 21:27 UTC

1 55936C 23037Y   26257.89423611 -.00035485  00000+0 -29738-2 0  2573
2 55936  70.0010 147.2412 0002753 270.3711 256.1424 14.98349468    18

Track STARLINK-5882 in real time with AllMySat

Download on the App Store